Location: Chrząstowo
(52.0654°N, 17.1290°E)
Time: 09:10:01
(UTC+01:00)

Envisat - Pass Details

Date: 15 December 2019
Orbit: 764 x 766 km, 98.1° (Epoch: 21 January)

Event Time Altitude Azimuth Distance (km) Brightness Sun altitude
Rises 18:51:59 0° 204° (SSW) 3,224 6.6 -28.1°
Reaches altitude 10° 18:54:47 10° 219° (SW) 2,303 5.9 -28.5°
Maximum altitude 18:58:42 22° 270° (W) 1,631 5.4 -29.1°
Drops below altitude 10° 19:02:38 10° 321° (NW) 2,316 5.9 -29.7°
Sets 19:05:27 0° 336° (NNW) 3,247 6.5 -30.1°
